�������l�o���
Date,Time,MP-1(��Sv/h),MP-2(��Sv/h),MP-3(��Sv/h),MP-4(��Sv/h),MP-5(��Sv/h),MP-6(��Sv/h),MP-7(��Sv/h),MP-8(��Sv/h),����,����(m/s),���J
2021/05/16,00:00,0.653,0.965,0.602,1.188,0.840,0.375,0.659,0.617,��,9.1,��
2021/05/16,00:10,0.651,0.963,0.601,1.186,0.839,0.374,0.661,0.617,��,9.1,��
2021/05/16,00:20,0.652,0.964,0.601,1.186,0.839,0.377,0.661,0.616,��,10.6,��
2021/05/16,00:30,0.652,0.962,0.603,1.186,0.840,0.376,0.660,0.616,��,10.7,��
2021/05/16,00:40,0.653,0.963,0.602,1.186,0.838,0.378,0.661,0.615,��,10.2,��
2021/05/16,00:50,0.651,0.962,0.602,1.185,0.838,0.377,0.660,0.615,��,10.2,��
2021/05/16,01:00,0.652,0.965,0.603,1.185,0.839,0.376,0.661,0.617,��,11.0,��
2021/05/16,01:10,0.653,0.965,0.603,1.186,0.841,0.375,0.662,0.617,��,12.0,��
2021/05/16,01:20,0.652,0.966,0.602,1.186,0.837,0.377,0.662,0.617,��,11.0,��
2021/05/16,01:30,0.654,0.966,0.604,1.184,0.840,0.375,0.661,0.617,��,11.0,��
2021/05/16,01:40,0.652,0.965,0.602,1.185,0.837,0.377,0.662,0.617,��쓌,10.7,��
2021/05/16,01:50,0.654,0.965,0.604,1.186,0.841,0.377,0.662,0.617,��,9.5,��
2021/05/16,02:00,0.655,0.966,0.603,1.188,0.840,0.378,0.664,0.618,��,9.4,��
2021/05/16,02:10,0.653,0.966,0.603,1.186,0.839,0.378,0.664,0.617,��,8.7,��
2021/05/16,02:20,0.653,0.964,0.601,1.184,0.840,0.375,0.663,0.618,��,7.6,��
2021/05/16,02:30,0.653,0.967,0.602,1.185,0.840,0.376,0.662,0.617,��,7.3,��
2021/05/16,02:40,0.655,0.968,0.602,1.185,0.839,0.377,0.662,0.617,��,7.8,��
2021/05/16,02:50,0.656,0.966,0.601,1.185,0.841,0.377,0.662,0.617,��,7.3,��
2021/05/16,03:00,0.655,0.967,0.602,1.187,0.842,0.376,0.662,0.617,��,8.0,��
2021/05/16,03:10,0.653,0.967,0.602,1.186,0.841,0.377,0.663,0.617,��,8.4,��
2021/05/16,03:20,0.654,0.968,0.604,1.185,0.838,0.377,0.660,0.616,��,8.9,��
2021/05/16,03:30,0.655,0.969,0.601,1.184,0.841,0.378,0.662,0.617,��,8.7,��
2021/05/16,03:40,0.656,0.967,0.603,1.186,0.841,0.378,0.662,0.617,��,8.3,��
2021/05/16,03:50,0.653,0.966,0.602,1.185,0.842,0.378,0.662,0.617,��,7.9,��
2021/05/16,04:00,0.655,0.969,0.603,1.186,0.840,0.378,0.662,0.616,��,7.9,��
2021/05/16,04:10,0.656,0.966,0.603,1.184,0.840,0.378,0.664,0.615,��,8.6,��
2021/05/16,04:20,0.655,0.968,0.604,1.185,0.842,0.377,0.663,0.618,��,9.8,��
2021/05/16,04:30,0.654,0.967,0.603,1.186,0.841,0.376,0.664,0.618,��,9.8,��
2021/05/16,04:40,0.656,0.966,0.603,1.184,0.841,0.377,0.663,0.617,��,10.2,��
2021/05/16,04:50,0.655,0.968,0.601,1.185,0.838,0.376,0.664,0.616,��,7.9,��
2021/05/16,05:00,0.654,0.966,0.603,1.185,0.840,0.378,0.663,0.616,��,8.7,��
2021/05/16,05:10,0.653,0.968,0.601,1.185,0.842,0.376,0.662,0.617,��,8.2,��
2021/05/16,05:20,0.655,0.967,0.603,1.187,0.843,0.377,0.662,0.616,��,7.9,��
2021/05/16,05:30,0.656,0.968,0.602,1.185,0.842,0.378,0.663,0.617,��,7.6,��
2021/05/16,05:40,0.653,0.967,0.602,1.185,0.840,0.376,0.662,0.617,��,7.7,��
2021/05/16,05:50,0.655,0.967,0.602,1.185,0.842,0.376,0.665,0.617,��,7.6,��
2021/05/16,06:00,0.654,0.968,0.605,1.186,0.840,0.378,0.662,0.617,��,6.5,��
2021/05/16,06:10,0.654,0.967,0.603,1.186,0.841,0.377,0.663,0.618,��,6.8,��
2021/05/16,06:20,0.655,0.964,0.602,1.187,0.842,0.377,0.663,0.617,��,8.6,��
2021/05/16,06:30,0.655,0.964,0.601,1.185,0.842,0.377,0.663,0.617,��,10.2,��
2021/05/16,06:40,0.653,0.964,0.602,1.186,0.840,0.377,0.663,0.619,��,9.1,��
2021/05/16,06:50,0.654,0.964,0.601,1.188,0.840,0.376,0.662,0.618,��쓌,10.7,��
2021/05/16,07:00,0.653,0.966,0.601,1.188,0.840,0.375,0.662,0.618,��쓌,12.8,��
2021/05/16,07:10,0.652,0.964,0.601,1.186,0.840,0.376,0.662,0.618,��쓌,11.9,��
2021/05/16,07:20,0.651,0.964,0.601,1.186,0.841,0.376,0.660,0.617,��쓌,9.5,��
2021/05/16,07:30,0.652,0.964,0.602,1.186,0.842,0.376,0.661,0.616,��쓌,8.5,��
2021/05/16,07:40,0.652,0.967,0.601,1.184,0.840,0.375,0.662,0.615,��쓌,9.7,��
2021/05/16,07:50,0.652,0.965,0.601,1.187,0.841,0.378,0.660,0.615,��쓌,10.2,��
2021/05/16,08:00,0.653,0.965,0.602,1.187,0.840,0.376,0.661,0.616,��쓌,10.7,��
2021/05/16,08:10,0.651,0.965,0.599,1.187,0.840,0.376,0.661,0.614,��쓌,11.7,��
2021/05/16,08:20,0.654,0.965,0.601,1.188,0.839,0.377,0.663,0.615,��쓌,12.8,��
2021/05/16,08:30,0.654,0.963,0.600,1.187,0.842,0.378,0.662,0.616,��쓌,15.2,��
2021/05/16,08:40,0.655,0.964,0.599,1.188,0.841,0.377,0.661,0.616,��,14.1,��
2021/05/16,08:50,0.656,0.967,0.601,1.189,0.839,0.378,0.661,0.616,��쓌,14.4,��
2021/05/16,09:00,0.653,0.966,0.601,1.187,0.842,0.378,0.662,0.615,��,13.5,��
2021/05/16,09:10,0.655,0.965,0.599,1.186,0.840,0.379,0.661,0.616,��쓌,14.6,��
2021/05/16,09:20,0.656,0.965,0.601,1.187,0.843,0.378,0.664,0.615,��쓌,13.8,��
2021/05/16,09:30,0.655,0.966,0.602,1.189,0.844,0.379,0.662,0.615,��쓌,14.6,��
2021/05/16,09:40,0.654,0.965,0.602,1.187,0.843,0.378,0.662,0.614,��쓌,15.2,��
2021/05/16,09:50,0.655,0.965,0.600,1.189,0.842,0.378,0.661,0.616,��,14.7,��
2021/05/16,10:00,0.654,0.965,0.603,1.190,0.842,0.381,0.662,0.616,��쓌,16.1,��
2021/05/16,10:10,0.656,0.965,0.600,1.187,0.841,0.380,0.661,0.615,��쓌,13.5,��
2021/05/16,10:20,0.657,0.966,0.601,1.188,0.842,0.379,0.663,0.617,��쓌,15.8,��
2021/05/16,10:30,0.654,0.965,0.602,1.189,0.843,0.380,0.663,0.616,��쓌,15.2,��
2021/05/16,10:40,0.655,0.965,0.601,1.187,0.843,0.380,0.662,0.616,��쓌,18.3,��
2021/05/16,10:50,0.655,0.966,0.601,1.186,0.842,0.380,0.662,0.616,��쓌,15.5,��
2021/05/16,11:00,0.654,0.967,0.601,1.187,0.844,0.380,0.662,0.616,��,14.7,��
2021/05/16,11:10,0.657,0.965,0.602,1.186,0.842,0.381,0.665,0.616,��,14.9,��
2021/05/16,11:20,0.655,0.968,0.602,1.187,0.845,0.380,0.662,0.617,��쓌,16.6,��
2021/05/16,11:30,0.656,0.965,0.602,1.186,0.843,0.379,0.662,0.617,��,19.4,��
2021/05/16,11:40,0.655,0.968,0.604,1.185,0.844,0.381,0.663,0.617,��쓌,18.0,��
2021/05/16,11:50,0.656,0.967,0.602,1.187,0.843,0.380,0.663,0.616,��,15.8,��
2021/05/16,12:00,0.656,0.968,0.601,1.185,0.844,0.381,0.661,0.616,��쓌,15.8,��
2021/05/16,12:10,0.656,0.964,0.603,1.186,0.842,0.381,0.663,0.618,��쓌,16.3,��
2021/05/16,12:20,0.656,0.968,0.602,1.186,0.843,0.381,0.662,0.616,��쓌,15.0,��
2021/05/16,12:30,0.657,0.966,0.602,1.189,0.845,0.382,0.662,0.617,��쓌,15.2,��
2021/05/16,12:40,0.657,0.965,0.602,1.186,0.843,0.381,0.662,0.617,��,17.4,��
2021/05/16,12:50,0.655,0.967,0.601,1.186,0.844,0.380,0.663,0.617,��쓌,16.6,��
2021/05/16,13:00,0.657,0.965,0.603,1.188,0.844,0.381,0.662,0.617,��쓌,17.6,��
2021/05/16,13:10,0.656,0.967,0.603,1.188,0.843,0.381,0.663,0.616,��쓌,18.3,��
2021/05/16,13:20,0.656,0.966,0.602,1.187,0.844,0.380,0.664,0.618,��쓌,15.2,��
2021/05/16,13:30,0.657,0.965,0.603,1.185,0.846,0.383,0.662,0.617,��,14.4,��
2021/05/16,13:40,0.656,0.968,0.603,1.185,0.845,0.381,0.664,0.618,��,11.6,��
2021/05/16,13:50,0.655,0.966,0.602,1.186,0.845,0.382,0.662,0.617,��쓌,13.0,��
2021/05/16,14:00,0.656,0.968,0.603,1.188,0.845,0.382,0.663,0.617,��,13.8,��
2021/05/16,14:10,0.656,0.966,0.602,1.189,0.842,0.383,0.663,0.615,��쓌,13.9,��
2021/05/16,14:20,0.654,0.967,0.602,1.190,0.844,0.381,0.664,0.616,��쓌,13.0,�L
2021/05/16,14:30,0.656,0.965,0.603,1.186,0.845,0.381,0.664,0.619,��,13.1,�L
2021/05/16,14:40,0.657,0.968,0.601,1.187,0.844,0.382,0.662,0.617,��쓌,11.3,�L
2021/05/16,14:50,0.656,0.967,0.603,1.185,0.846,0.382,0.663,0.617,��,10.5,�L
2021/05/16,15:00,0.658,0.967,0.602,1.188,0.845,0.383,0.663,0.618,��,9.8,�L
2021/05/16,15:10,0.656,0.968,0.604,1.188,0.847,0.383,0.663,0.618,��,9.7,�L
2021/05/16,15:20,0.658,0.968,0.603,1.190,0.845,0.382,0.663,0.617,��,9.0,�L
2021/05/16,15:30,0.660,0.966,0.606,1.191,0.845,0.383,0.662,0.616,��,10.3,�L
2021/05/16,15:40,0.656,0.968,0.604,1.191,0.844,0.382,0.663,0.616,��,8.9,�L
2021/05/16,15:50,0.658,0.967,0.605,1.189,0.844,0.382,0.663,0.618,��,10.2,�L
2021/05/16,16:00,0.658,0.967,0.606,1.192,0.843,0.382,0.663,0.618,��,8.7,�L
2021/05/16,16:10,0.657,0.966,0.604,1.190,0.846,0.382,0.665,0.618,��,8.0,�L
2021/05/16,16:20,0.656,0.968,0.605,1.191,0.845,0.381,0.664,0.616,��,8.1,��
2021/05/16,16:30,0.657,0.969,0.605,1.190,0.846,0.381,0.663,0.617,��,9.5,�L
2021/05/16,16:40,0.657,0.967,0.606,1.193,0.845,0.381,0.663,0.618,��,9.4,�L
2021/05/16,16:50,0.657,0.967,0.607,1.191,0.843,0.381,0.663,0.618,��쓌,9.8,�L
2021/05/16,17:00,0.659,0.967,0.607,1.190,0.845,0.380,0.664,0.617,��,7.5,�L
2021/05/16,17:10,0.658,0.967,0.605,1.192,0.844,0.382,0.663,0.618,��,7.1,�L
2021/05/16,17:20,0.656,0.965,0.604,1.189,0.842,0.381,0.661,0.616,��,8.3,�L
2021/05/16,17:30,0.654,0.964,0.603,1.190,0.844,0.380,0.662,0.615,��,7.1,�L
2021/05/16,17:40,0.655,0.964,0.605,1.189,0.840,0.380,0.661,0.614,��,7.8,�L
2021/05/16,17:50,0.655,0.962,0.605,1.192,0.841,0.380,0.662,0.617,��쓌,7.9,�L
2021/05/16,18:00,0.655,0.965,0.604,1.191,0.839,0.380,0.661,0.617,��,9.7,��
2021/05/16,18:10,0.653,0.965,0.604,1.187,0.840,0.379,0.663,0.617,��,11.6,��
2021/05/16,18:20,0.653,0.965,0.603,1.189,0.840,0.378,0.663,0.615,��,10.5,��
2021/05/16,18:30,0.653,0.963,0.605,1.189,0.841,0.378,0.662,0.614,��,9.4,��
2021/05/16,18:40,0.653,0.964,0.604,1.189,0.841,0.379,0.662,0.617,��쓌,9.2,��
2021/05/16,18:50,0.654,0.964,0.604,1.191,0.841,0.378,0.661,0.613,��쓌,11.0,��
2021/05/16,19:00,0.654,0.964,0.604,1.190,0.840,0.377,0.661,0.617,��,13.1,��
2021/05/16,19:10,0.654,0.965,0.604,1.187,0.839,0.377,0.660,0.615,��,13.5,��
2021/05/16,19:20,0.653,0.965,0.604,1.188,0.842,0.378,0.661,0.617,��쓌,13.0,��
2021/05/16,19:30,0.655,0.963,0.602,1.191,0.839,0.377,0.662,0.616,��쓌,11.9,��
2021/05/16,19:40,0.654,0.964,0.598,1.189,0.840,0.378,0.662,0.616,��쓌,12.4,��
2021/05/16,19:50,0.654,0.963,0.600,1.190,0.841,0.377,0.661,0.615,��쓌,11.7,��
2021/05/16,20:00,0.653,0.963,0.601,1.190,0.841,0.377,0.661,0.615,��,10.2,�L
2021/05/16,20:10,0.652,0.963,0.600,1.187,0.841,0.378,0.662,0.614,��,8.7,�L
2021/05/16,20:20,0.654,0.963,0.601,1.189,0.840,0.380,0.661,0.616,��,8.8,�L
2021/05/16,20:30,0.654,0.963,0.600,1.190,0.840,0.379,0.661,0.616,��,9.9,�L
2021/05/16,20:40,0.657,0.961,0.601,1.188,0.838,0.378,0.661,0.615,��,10.7,�L
2021/05/16,20:50,0.655,0.960,0.602,1.187,0.838,0.378,0.662,0.615,��,11.0,�L
2021/05/16,21:00,0.653,0.963,0.603,1.190,0.838,0.378,0.660,0.616,��,9.1,�L
2021/05/16,21:10,0.653,0.961,0.602,1.189,0.838,0.378,0.662,0.616,��,8.7,��
2021/05/16,21:20,0.654,0.962,0.604,1.188,0.838,0.378,0.662,0.615,��,10.5,��
2021/05/16,21:30,0.653,0.963,0.603,1.189,0.841,0.378,0.662,0.614,��,10.2,��
2021/05/16,21:40,0.655,0.961,0.602,1.189,0.838,0.377,0.662,0.617,��,11.0,��
2021/05/16,21:50,0.655,0.964,0.603,1.191,0.838,0.378,0.661,0.617,��,9.4,��
2021/05/16,22:00,0.656,0.961,0.602,1.188,0.837,0.378,0.661,0.617,��,7.9,��
2021/05/16,22:10,0.656,0.964,0.603,1.187,0.840,0.378,0.661,0.616,��,6.9,��
2021/05/16,22:20,0.656,0.963,0.603,1.187,0.837,0.378,0.661,0.617,��,8.8,��
2021/05/16,22:30,0.655,0.962,0.603,1.188,0.837,0.379,0.663,0.616,��,7.4,��
2021/05/16,22:40,0.654,0.961,0.602,1.190,0.838,0.377,0.662,0.617,��,9.4,��
2021/05/16,22:50,0.654,0.962,0.602,1.187,0.838,0.378,0.663,0.616,��,8.7,��
2021/05/16,23:00,0.654,0.962,0.601,1.187,0.838,0.377,0.660,0.617,��,8.6,�L
2021/05/16,23:10,0.655,0.963,0.604,1.188,0.840,0.377,0.661,0.616,��,8.4,�L
2021/05/16,23:20,0.653,0.963,0.603,1.190,0.840,0.377,0.660,0.615,��,9.6,�L
2021/05/16,23:30,0.654,0.963,0.601,1.188,0.838,0.379,0.661,0.617,��,9.4,��
2021/05/16,23:40,0.655,0.963,0.602,1.188,0.839,0.377,0.662,0.616,��쓌,12.2,��
2021/05/16,23:50,0.654,0.961,0.603,1.187,0.839,0.377,0.662,0.615,��,12.5,��
